Location: Valdosta
(30.8330°N, 83.2790°W)
Time: 20:13:16
(UTC-04:00)

Daily predictions for brighter satellites

Satellite Brightness Start Highest point End
(mag) Time Altitude Azimuth Time Altitude Azimuth Time Altitude Azimuth
Cosmos 1553 Rocket 4.2 20:55:57 10° N 21:02:11 57° E 21:08:18 10° SSE
Cosmos 1328 Rocket 3.7 21:01:00 10° N 21:05:23 58° E 21:09:43 10° SSE
USA 186 1.7 21:04:23 10° SE 21:06:27 33° ENE 21:08:36 10° N
CZ-4 DEB 3.8 21:03:41 10° SE 21:06:30 29° ENE 21:09:19 10° NNE
H-2A R/B 2.8 21:10:06 10° SSE 21:13:53 63° ENE 21:17:38 10° N
Hubble Space Telescope 1.6 21:11:36 10° SW 21:15:19 33° SSE 21:19:03 10° E
OTV 4 0.6 21:15:01 10° WSW 21:17:59 76° NNW 21:20:57 10° ENE
COSMOS 2428 4.2 21:17:58 10° NNE 21:22:15 22° ENE 21:26:23 11° ESE
CZ-2D R/B 3.5 21:20:29 10° S 21:24:20 70° W 21:28:11 10° NNW
DELTA 2 R/B (1) 3.9 21:19:01 10° WNW 21:24:33 64° NNE 21:29:53 11° ESE
Cosmos 1500 Rocket 3.9 21:20:59 10° SSW 21:25:19 68° W 21:29:43 10° N
Cosmos 2058 3.9 21:24:32 10° SSE 21:27:59 26° E 21:31:25 10° NNE
Cosmos 2151 3.1 21:24:40 10° SSE 21:28:43 50° E 21:32:47 10° NNE
Cosmos 1680 Rocket 4.0 21:24:46 10° N 21:29:48 44° ENE 21:34:16 13° SE
Cosmos 1437 Rocket 2.7 21:27:20 10° N 21:31:11 77° E 21:35:04 10° SSE
NOSS 3-1 (A) 3.3 21:28:14 10° SSW 21:33:55 68° ESE 21:40:04 10° NE
Cosmos 1898 Rocket 4.0 21:30:51 10° SSE 21:35:36 38° E 21:40:23 10° NNE
Cosmos 923 Rocket 4.0 21:30:31 10° N 21:35:42 70° ENE 21:40:35 11° SSE
Cosmos 773 Rocket 4.1 21:33:06 10° NNW 21:38:20 84° WSW 21:43:35 10° SSE
Cosmos 405 3.0 21:35:24 10° N 21:38:59 65° E 21:42:04 13° SSE
Cosmos 1437 2.7 21:38:07 10° S 21:41:23 86° W 21:44:40 10° N
Delta 2 Rocket 4.2 21:37:52 10° WNW 21:41:31 39° N 21:44:51 10° ENE
ALOS 3.1 21:37:49 10° S 21:42:20 50° W 21:46:52 10° NNW
Aureole 3 4.4 21:37:03 10° S 21:43:45 66° E 21:49:05 10° NNE
Cosmos 1939 Rocket 3.3 21:42:40 18° SE 21:45:11 41° ENE 21:48:51 10° N
Cosmos 2219 3.6 21:40:01 10° SSW 21:45:44 71° WNW 21:51:29 10° NNE
FENGYUN 3A 4.4 21:41:54 10° S 21:47:10 53° W 21:52:28 10° NNW
Tiangong 1 4.1 21:45:14 10° WNW 21:47:12 15° NNW 21:49:10 10° NNE
Cosmos 2150 Rocket 4.1 21:46:20 10° S 21:51:38 60° ESE 21:57:02 10° NNE
OAO 2 Rocket 3.8 21:47:17 10° W 21:52:33 65° NNW 21:57:51 10° ENE
Nimbus 7 Rocket 4.3 21:46:45 10° NNE 21:52:36 68° ESE 21:58:26 10° S
Cosmos 2237 Rocket 4.2 21:51:37 10° NNE 21:53:53 12° ENE 21:56:09 10° E
ATLAS 2AS CENTAUR R/B 3.3 21:49:22 10° S 21:55:53 38° ESE 22:02:56 10° NE
Cosmos 2322 Rocket 4.2 21:51:37 10° NW 21:56:06 25° WSW 22:00:34 10° SSW
Sich 1 3.7 21:54:32 22° SE 21:56:42 36° E 22:00:45 10° NNE
Cosmos 1328 4.0 21:56:49 10° SSW 22:00:44 70° W 22:04:40 10° N
Cosmos 2322 3.8 21:55:29 10° NNW 22:01:12 78° WSW 22:05:37 17° SSE
deb Chang Zheng 4 3.9 21:57:18 10° N 22:01:38 69° WNW 22:05:57 10° SSW
Cosmos 2360 Rocket 2.4 21:57:38 10° NNW 22:03:16 72° WSW 22:07:43 17° S
ERS-1 Rocket 3.1 21:59:34 13° S 22:04:04 75° WSW 22:09:07 10° NNW
Cosmos 1151 Rocket 3.4 21:59:49 10° NNW 22:04:06 63° W 22:07:57 13° S
Cosmos 1633 Rocket 3.5 22:02:35 26° SE 22:04:30 42° E 22:08:38 10° NNE
YAOGAN 6 4.0 22:04:58 21° E 22:05:18 22° ENE 22:08:06 10° NNE
Cosmos 1271 Rocket 4.4 22:02:40 10° NNE 22:05:24 18° ENE 22:05:31 18° E
ERBS 2.9 22:02:32 10° SW 22:06:00 60° NW 22:09:27 10° NNE
SL-16 R/B 4.4 22:05:47 10° NW 22:09:49 20° W 22:13:49 10° SW
Sakura Rocket 3.1 22:06:57 10° WSW 22:11:22 46° S 22:12:18 38° SE
Envisat 2.9 22:08:20 24° SSE 22:11:28 76° ENE 22:16:33 10° N
Cosmos 1703 3.9 22:14:44 34° E 22:14:52 34° E 22:18:25 10° NNE
SL-14 R/B 3.1 22:14:22 28° S 22:16:22 77° E 22:20:22 10° N
CZ-4 R/B 4.5 22:13:58 10° NE 22:18:21 33° E 22:18:51 33° ESE
Cosmos 1805 Rocket 4.0 22:17:52 10° SSW 22:22:12 61° W 22:26:36 10° N
PSLV R/B 3.2 22:23:17 62° ENE 22:23:17 62° ENE 22:26:11 10° N
Cosmos 220 Rocket 4.0 22:22:37 16° SSW 22:26:01 87° WNW 22:30:28 10° NNE
Meteor 1-27 4.1 22:20:39 10° N 22:26:17 74° E 22:28:49 33° SSE
Cosmos 2227 Rocket 2.1 22:23:05 19° S 22:27:08 62° ESE 22:32:43 10° NNE
Cosmos 1937 Rocket 3.5 22:24:19 10° SSW 22:29:33 84° WNW 22:34:46 10° NNE
USA 32 4.4 22:26:27 10° NNE 22:31:29 45° E 22:32:31 40° ESE
MetOp-A 4.1 22:30:22 37° SSE 22:32:30 74° ENE 22:37:51 10° N
Cosmos 1300 2.7 22:31:10 10° N 22:35:01 75° W 22:35:46 54° SSW
Cosmos 990 Rocket 3.8 22:32:41 28° S 22:35:26 76° ESE 22:40:35 10° NNE
H-2A R/B 3.3 22:36:22 20° SSW 22:38:59 39° W 22:43:12 10° NNW
SPOT 5 3.0 22:40:03 39° S 22:41:40 67° WSW 22:46:27 10° NNW
Cosmos 292 Rocket 3.7 22:40:42 10° N 22:45:26 67° ENE 22:46:00 60° ESE
ARGOS 3.3 22:44:45 46° ESE 22:45:50 55° ENE 22:51:05 10° N
Meteor 2-11 Rocket 4.4 22:39:59 10° N 22:46:08 81° W 22:48:55 34° S
Cosmos 1707 Rocket 4.0 22:42:42 10° NNW 22:47:00 57° W 22:48:17 40° SSW
H-2A R/B 3.3 22:43:16 10° WSW 22:47:05 67° SSE 23:08:50 10° E
SL-16 R/B 4.0 22:46:21 10° NNE 22:49:48 16° ENE 22:50:40 16° ENE
CZ-4B R/B 3.7 22:46:34 10° N 22:51:47 70° WNW 22:54:30 28° SSW
Cosmos 2297 Rocket 2.0 22:51:52 46° S 22:53:34 73° ESE 22:59:13 10° NNE
OTV 4 2.7 22:52:09 10° WNW 22:54:36 22° N 22:54:46 22° N
Cosmos 2333 Rocket 2.5 22:49:16 10° N 22:54:52 50° ENE 22:55:43 46° E
Hubble Space Telescope 1.7 22:52:15 10° WSW 22:54:58 37° WSW 22:54:58 37° WSW
Cosmos 1455 3.7 22:53:36 10° NNE 22:55:49 27° NE 22:55:49 27° NE
Cosmos 1726 3.0 22:55:27 10° NNW 22:59:04 44° W 22:59:13 44° W
Cosmos 1470 Rocket 3.4 22:59:12 86° NNW 22:59:12 86° NNW 23:03:27 10° N
Cosmos 1933 Rocket 3.4 23:00:00 89° SE 23:00:01 89° ENE 23:04:29 10° N
Cosmos 2219 Rocket 2.0 22:56:42 10° NNW 23:02:19 80° ENE 23:03:06 66° SE
SL-08 RB Rocket 3.7 23:05:02 68° NE 23:05:02 68° NE 23:09:12 10° N
Meteor 2-10 4.1 23:00:49 10° N 23:06:35 87° E 23:07:30 65° SSE
COSMOS 2428 3.6 23:01:18 10° NW 23:06:36 41° WSW 23:08:25 32° SW
Meteor 1-4 Rocket 3.6 23:03:57 10° NNW 23:06:57 44° WNW 23:06:57 44° WNW
NOSS 0 Rocket 3.8 23:02:25 10° NNW 23:08:36 78° ENE 23:09:35 63° SE
Lacrosse 4 Rocket 3.6 23:06:28 10° NNE 23:08:55 17° NE 23:08:55 17° NE
DELTA 2 R/B (1) 4.4 23:05:48 10° WNW 23:10:38 36° SW 23:10:38 36° SW
Nadezhda 1 Rocket 3.8 23:05:18 10° N 23:11:25 75° E 23:12:17 64° SE
Terra 2.7 23:14:21 37° NE 23:14:21 37° NE 23:18:03 10° N
H-2A R/B 2.4 23:15:25 51° ENE 23:15:25 51° ENE 23:20:33 10° N
Cosmos 1745 Rocket 4.5 23:16:53 31° SW 23:19:44 56° W 23:25:48 10° N
COSMOS 2455 3.7 23:16:00 10° N 23:21:27 35° ENE 23:21:50 34° ENE
Cosmos 1125 Rocket 3.5 23:23:43 80° NNE 23:23:43 80° NNE 23:28:45 10° NNE
Cosmos 1980 3.5 23:21:08 10° NNW 23:26:48 88° WSW 23:26:49 88° SW
Cosmos 1709 Rocket 3.9 23:27:43 69° E 23:27:43 69° E 23:33:43 10° NNE
SPOT 1/Viking Rocket 4.2 23:27:31 42° WSW 23:28:03 44° W 23:32:57 10° NNW
Cosmos 1626 4.1 23:36:48 27° NW 23:36:48 27° NW 23:39:09 10° NNW
OAO 2 Rocket 3.9 23:32:34 10° WNW 23:37:48 56° N 23:38:02 55° NNE
Cosmos 2237 Rocket 2.2 23:32:48 10° NNW 23:38:17 75° W 23:38:17 75° W
ATLAS 2AS CENTAUR R/B 4.1 23:39:55 10° WSW 23:46:46 40° NW 23:54:09 10° NNE
